Location: Stockholm
(59.3330°N, 18.0500°E)
Time: 00:13:14
(UTC+02:00)

NOAA 18 - Pass Details

Date: 05 April 2023
Orbit: 838 x 860 km, 98.9° (Epoch: 02 June)

Event Time Altitude Azimuth Distance (km) Brightness Sun altitude
Exits shadow 20:35:21 - 110° (ESE) 2,588 7.1 -7.5°
Reaches altitude 10° 20:35:36 10° 108° (ESE) 2,503 7.0 -7.6°
Maximum altitude 20:40:19 30° 50° (NE) 1,519 6.4 -8.1°
Drops below altitude 10° 20:45:03 10° 352° (N) 2,510 8.2 -8.6°
Sets 20:47:41 0° 342° (NNW) 3,448 9.2 -8.9°
